Hourly Data Report for July 22, 2003

TORONTO CITY
ONTARIO

43°40'00.000" N
79°24'00.000" W
112.50 m
6158355
71508
XTO

Download Data

Hourly Data (July 2003)
Hourly Data Report for July 22, 2003
TIME
LST
Temp Definition
°C
Dew Point Definition
°C
Rel Hum Definition
%
Precip. Amount Definition
mm

Wind Dir Definition
10's deg

Wind Spd Definition
km/h
Visibility Definition
km
Stn Press Definition
kPa
Hmdx Definition


Wind Chill Definition


Weather Definition


00:00 19.2 18.9 98   LegendMM LegendMM LegendMM 99.15     LegendNANA
01:00 19.0 18.7 98   LegendMM LegendMM LegendMM 99.17     LegendNANA
02:00 18.4 18.1 98   LegendMM LegendMM LegendMM 99.18     LegendNANA
03:00 18.1 17.8 98   LegendMM LegendMM LegendMM 99.17     LegendNANA
04:00 18.4 18.2 99   LegendMM LegendMM LegendMM 99.19     LegendNANA
05:00 18.1 17.8 98   LegendMM LegendMM LegendMM 99.23     LegendNANA
06:00 17.9 17.3 96   LegendMM LegendMM LegendMM 99.28     LegendNANA
07:00 19.1 18.1 94   LegendMM LegendMM LegendMM 99.35     LegendNANA
08:00 20.9 18.7 87   LegendMM LegendMM LegendMM 99.42 27   LegendNANA
09:00 21.6 18.9 85   LegendMM LegendMM LegendMM 99.41 28   LegendNANA
10:00 21.3 18.7 85   LegendMM LegendMM LegendMM 99.46 28   LegendNANA
11:00 19.5 18.8 96   LegendMM LegendMM LegendMM 99.46     LegendNANA
12:00 21.7 20.3 92   LegendMM LegendMM LegendMM 99.45 30   LegendNANA
13:00 23.0 19.9 83   LegendMM LegendMM LegendMM 99.40 30   LegendNANA
14:00 22.3 20.1 87   LegendMM LegendMM LegendMM 99.42 30   LegendNANA
15:00 22.6 19.2 81   LegendMM LegendMM LegendMM 99.44 30   LegendNANA
16:00 21.8 18.2 80   LegendMM LegendMM LegendMM 99.44 28   LegendNANA
17:00 21.1 18.8 87   LegendMM LegendMM LegendMM 99.48 28   LegendNANA
18:00 20.2 19.2 94   LegendMM LegendMM LegendMM 99.50 27   LegendNANA
19:00 20.3 19.6 96   LegendMM LegendMM LegendMM 99.49 28   LegendNANA
20:00 20.6 19.0 91   LegendMM LegendMM LegendMM 99.49 27   LegendNANA
21:00 19.9 18.0 89   LegendMM LegendMM LegendMM 99.54     LegendNANA
22:00 19.3 17.2 88   LegendMM LegendMM LegendMM 99.56     LegendNANA
23:00 19.0 16.7 87   LegendMM LegendMM LegendMM 99.57     LegendNANA

Notes on Data Quality.

Legend

  • E = Estimated
  • M = Missing
  • NA = Not Available*
  • [empty] = Indicates an unobserved value
Date modified: